 テレメトリ	    内   容		換算値	単 位
 F1ー12	磁気センサーX軸=      106372.5 nT
 F1ー13	磁気センサーZ軸=	24509.8	nT
 F0ー15	太陽電池発生電流=	 1431.4	mA
 F0ー16	B充放電電流	=	  451.6	mA
 F0ー17	B端子電圧	=	   16.1	V
 F0ー18	B中間端子電圧	=	    7.0	V
 F0ー19	バス電圧	=	   15.7	V
 F0ー20	+5安定化電圧	=	    5.1	V
 F0ー21	ー5V安定化電圧	=	   -4.9	V
 F0ー22	+10V安定化電圧=	   10.0	V
 F0ー23	JTA出力電力	=	  805.4	mW
 F0ー24	JTD出力電力	=	 1381.6	mW
 F0ー25	Bセル温度	=	   10.0	℃
 F0ー26	構体温度ー1	=	    8.9	℃
 F0ー27	構体温度ー2	=	    9.3	℃
 F0ー28	構体温度ー3	=	    9.6	℃
 F0ー29	構体温度ー4	=	    9.3	℃
 F1ー18	太陽電池パネル温度ー1=   -7.0	℃
 F1ー19	太陽電池パネル温度ー2=    6.6	℃
 F1ー24	太陽電池パネル温度ー3=   11.1	℃
 F1ー23	JTD  Tr温度=	   13.9	℃

 ■複船▲淵蹈哀癲璽
  
  テレメトリの最初の行の換算値例
  AS13846PC  7Jun99
  JST  13:34 - 14:42 JA アナログテレメトリ
  Freq.  435.796 -435.786MHz
 
テレメトリ 内   容		換算値	単 位
 3C	磁気センサーZ軸=	47549.0	nT
 3D	磁気センサX軸	=	36764.7	nT
 4A	太陽電池発生電流=	 1303.9	mA
 4B	B充放電電流	=	 -118.4	mA
 4C	B端子電圧	=	   10.7	V
 4D	B中間端子電圧	=	    6.9	V
 5A	バス電圧	=	   17.3	V
 5B	JTA送信電力	=	  779.4	mW
 5C 	構体温度1	=	    8.9	℃
 5D	構体温度2	=	    9.3	℃
 6A	構体温度3	=	    9.6	℃
 6B	構体温度4	=	    9.3	℃
 6C	Bセル温度	=	   10.0	℃

  *計算処理は OFFICE 97 を使用.
  *JDディジタルとJAアナログテレメトリと比較してみましょう.
   
 ==============================================================================
  4)FO−20(ふじ2号)のCWテレメトリは5月10日(月)18:27(JST)の
     パスではテレメトリーが単一トーンの連続音から唸りを伴った連続音、さらにゆらぎの
     ある信号になり、いままでより若干信号が弱くなっていました.

 -----------------------------  FO - 20 軌道要素 ----------------------------------
 
 ■ 軌道要素1 :出典は「ふじ3号」に同じ. 
  
  FO-20
 1 20480U 90013C   99154.61455692 -.00000010  00000-0  50786-4 0  1458
 2 20480  99.0248 351.9213 0540345 195.2868 163.1328 12.83252834436591
 
 ■ 軌道要素2 :出典は「ふじ3号」に同じ.  
               
  Satellite: FO-20
 Catalog number: 20480
 Epoch time:      99154.61455692
 Element set:     145
 Inclination:       99.0248 deg
 RA of node:       351.9213 deg
 Eccentricity:    0.0540345
 Arg of perigee:   195.2868 deg
 Mean anomaly:     163.1328 deg
 Mean motion:   12.83252834 rev/day
 Decay rate:       -1.0e-07 rev/day^2
 Epoch rev:           43659
 Checksum:              310

  ====================    FO-20 の FFTDSP ==========================
  
 JE9PEL/1局 脇田 美根夫氏がFO−20のスピン周期の測定について
  [jamsat-bb:4524]にレポートされていましたので転載させて頂きました.

 衛星FO-20のCWビーコン(435.795MHz USB) は、JN1GKZ新井氏や
 JH6MME高山氏が表現されているように、6月3日も、唸りと揺らぎ
 のあるキャリアのみが送信されていました。

 あまり比較はできませんが、スピン周期が現在 4分ほどになって
 いる衛星AO-10に比べ、FO-20はかなり高速で回転しているような
 感じがします。 このFO-20のスピン周期を測定するにはどのよう
 な方策があるか、今、思案しているところです。

 ----------------------------------------------
 Name : JE9PEL/1 脇田
 Mail : je9pel@jamsat.or.jp
 URL  : http://www.ne.jp/asahi/hamradio/je9pel/
 QTH  : Yokohama, Japan
 Date : 3 Jun. 1999
 ----------------------------------------------
 
 △泙疹綉のレポートを受けてJG1LDV局の白子氏が下記のように
  JAS-1/JAS-1Bの設計方針等について説明されていますので転載
  させて頂きました.

 JE9PEL脇田さん、皆さん。 JG1LDV白子/'99−06−04です。

 白子:
 FO-20の姿勢状態について一言。
 FO-20には特定のスピン軸は存在しませんので、AO-10や一般的なスピン衛星に見られ
 る安定したスピンにより発生する受信レベルの変化からのスピン計測とは異なった趣
 きを呈すると思います。
 開発当時のJAS-1ガイドブックやJARLnewsで解説されていますが念のため。
 JAS-1/JAS-1Bの設計方針として積極的な姿勢制御をしない衛星の熱設計、発生電力、
 機器の収納性、アンテナパターン等の関係から形状を球形にしましたが、衛星姿勢が
 一定の状態に留まる事による一方向からの太陽光照射を受けないように姿勢変動用磁
 石を搭載して地球磁場との相互作用による姿勢変動を起こさせていますので複雑な姿
 勢変化をしていると予想されます。
 この辺を留意されて計測してみて下さい。
 楽しみにしています。
                                    以 上
 jg1ldv@jamsat.or.jp
 goro-shirako@mva.biglobe.ne.jp
    =====================================================================

 5)JARL のホームページに新しい運用追加予定が記載されていましたのでご紹介します.
       ( http://www.jarl.or.jp/Japanese/3_Fuji/uy.htm )

        ■ ふじ3号/FO−29 ■  
  
    *** 運用予定について ***
   
  ☆5月31日 〜 6月07日     デジタル系1200bpsメールボックス運用
   6月07日 〜 6月14日     アナログ系運用
   6月14日 〜 6月21日     デジタル系1200bpsメールボックス運用
   6月21日 〜 7月05日     アナログ系運用

 なお,運用予定は都合により変更することがありますのでご了承願います。

 照会先 : lab@jarl.or.jp

 最新の情報はテレホンサービス(:03−3942−1000)をお聞きください。
   
  以後の運用に付きましては6月7日18時頃にお知らせいたします。

        ■ ふじ2号/FO−20 ■      
            「ふじ2号」 現況                                                                                               
   JAS-1b/FO-20(ふじ2号)の不具合発生について
    JAS-1b(ふじ2号)のCWテレメトリ信号に,1997年10月12日12時
 (JST)の日本上空通過時,3桁の数字が繰り返されるはずが3個の長音の
  繰り返しとなっているという異常が発見されました。この不具合は次の通過時
  からは回復していましたが13日15時20分の通過時に再び観測されました。
  衛星のアナログ系中継モード動作は異常が無く,正常時のテレメトリ内容からは
  衛星の動作に異常は認められません。従って,直ちに衛星のミッションに影響す
  ることは無いと予想されますので,当面はアナログ系中継モードを継続します。
  衛星は既に打ち上げてから7年8ヶ月を経ておりますので,今後は監視を強化す
  る予定です。アマチュア各位のレポートをお待ちします.   
  
  以上  http://www.jarl.or.jp/Japanese/3_Fuji/fuji.htm
                                           
   =============   JAS-2 (ふじ3号)と現在までの情報   ===========
  
  A.電話によるふじ3号の運用情報
      社団法人日本アマチュア連盟によるサービス
           TEL .   03− 3942 − 1000
  B.アマチュア無線FAXサービス
      JARLによるふじ3号の軌道情報(オービットカレンダー)
         FAX No.  03− 3233 −0055
  C.WWWブラウザで情報を簡単に見れる人のためにJAS−2
     ふじ3号の衛星としての運用されるまでの名前)の概要、打ち上げ
     までの状況、運用中における状況を説明したホームページを紹介し
     ておきます.
     社団法人日本アマチュア無線連盟(JARL)のホームページ

          http://www.jarl.or.jp/Japanese/3_Fuji
 
     宇宙開発事業団(NASDA)ホームページ 
          http://www.nasda.go.jp/
         打上げ衛星 :地球観測プラットフォーム技術衛星(ADEOS) 
                       アマチュア衛星3号(JAS-2)
          http://yyy.tksc.nasda.go.jp/Home/Press/Press-j/jas-2_j.html        

  D.JAMSATによる軌道情報の活用
        JAMSATのホームページまたはjamsat−kepsの軌道要素より
      衛星の軌道情報を得る.
     JAMSATホームページ
               URL    http://www.jamsat.or.jp
       上記ホームページでは各地で行われるアマチュア通信衛星に関する
      ミューティングのお知らせや世界のアマチュア衛星に関する情報が
      満載されています.
   
 =========================================================================
       JAMSATのメンバーのご協力によりJH6MME(高山 秀造)が
    執筆・編集を担当しております.ご指摘の意見、疑問やこのようにしたら
    というアイデアがありましたら小さなことでもかまいませんので気軽に下
    記アドレスまでご連絡ください.jamsat−newsからjas2
    infoへの転載をJH4PHW局坂井さんに担当して頂いております.
                    E-mail : jh6mme@jamsat.or.jp : jh4phw@jamsat.or.jp
 ===============================   END  ===============================